カタログに戻る

COSMOS 2109

GLONASS

運用中ナビゲーションMEO
NORAD 21006·PAYLOAD·🇷🇺 Russia

打ち上げ Dec 8, 1990 から Baikonur Cosmodrome

Loading…

次のパス (今後24時間)

TLE

最新Source: Space-Track

元期: Sep 13, 2026, 18:05 UTC

1 21006U 90110A   26256.75351463 -.00000012  00000-0  00000-0 0  9999
2 21006  64.9816  68.0988 0078844 201.0846 159.4631  2.13101847278379

AllMySatでCOSMOS 2109をリアルタイム追跡

Download on the App Store